Tracking 30743 objects as of 25-Jun-2025
HD Live streaming from Space Station
objects crossing your sky now

OPS 6679 (VELA 8)

Track OPS 6679 (VELA 8) now!
OPS 6679 (VELA 8) is classified as:


NORAD ID: 2766
Int'l Code: 1967-040B
Perigee: 57,003.4 km
Apogee: 167,359.4 km
Inclination: 34.4 °
Period: 6,770.6 minutes
Semi major axis: 118552 km
RCS: Unknown
Launch date: April 28, 1967
Source: United States (US)
Launch site: AIR FORCE EASTERN TEST RANGE (AFETR)
Your satellite tracking list
Your tracking list is empty




NASA's NSSDC Master Catalog

Two Line Element Set (TLE):
1 02766U 67040B   25174.84730699 -.00001518  00000-0  00000-0 0  9999
2 02766  34.3846  12.5797 4654312 106.2819 358.6899  0.21268519  4730
Source of the keplerian elements: AFSPC